Weather History for KP60 - December, 2013

Change the Weather History Date:

Saturday, December 14, 2013

  Actual Average Record
Temperature  
Mean Temperature 16 °F 13 °F  
Max Temperature 21 °F 24 °F 38 °F (1998)
Min Temperature 10 °F 3 °F -13 °F (2008)
Degree Days  
Heating Degree Days 49 52  
Month to date heating degree days 862 705  
Since 1 July heating degree days 4090 4025  
Cooling Degree Days 0 0  
Month to date cooling degree days 0 0  
Year to date cooling degree days 0 0  
Moisture  
Dew Point 14 °F    
Average Humidity 85    
Maximum Humidity 92    
Minimum Humidity 77    
Precipitation  
Precipitation 0.00 in 0.05 in 0.16 in (2014)
Month to date precipitation 0.93 0.64  
Year to date precipitation 19.82 19.44  
Sea Level Pressure  
Sea Level Pressure 30.50 in    
Wind  
Wind Speed 2 mph (West)    
Max Wind Speed 12 mph    
Max Gust Speed 20 mph    
T = Trace of Precipitation, MM = Missing Value Source: NWS Daily Summary

Daily Weather History Graph

Daily Weather History Graph

Search for Another Location

Airport or City:

Trip Planner

Search our weather history database for the weather conditions in past years. The results will help you decide how hot, cold, wet, or windy it might be!

Date:

Astronomy

Dec. 14, 2013 Rise Set
Actual Time 7:50 AM MST 4:42 PM MST
Civil Twilight 7:17 AM MST 5:15 PM MST
Nautical Twilight 6:40 AM MST 5:52 PM MST
Astronomical Twilight 6:05 AM MST 6:27 PM MST
Moon 3:10 PM MST (12/14) 5:10 AM MST (12/14)
Length of Visible Light 9h 58m
Length of Day
8h 51m
Waxing Gibbous, 94% of the Moon is Illuminated
Dec 14
Waxing Gibbous
Dec 17
Full
Dec 25
Last Quarter
Jan 1
New
Jan 7
First Quarter

Hourly Weather History & Observations

Time (MST) Temp. Windchill Dew Point Humidity Pressure Visibility Wind Dir Wind Speed Gust Speed Precip Events Conditions
12:56 AM 15.1 °F - 12.9 °F 91% 30.41 in - Calm Calm - N/A   Unknown
1:56 AM 15.1 °F 9.4 °F 12.0 °F 88% 30.43 in - Variable 3.5 mph - N/A   Unknown
2:56 AM 16.0 °F - 12.9 °F 88% 30.45 in - Calm Calm - N/A   Unknown
3:56 AM 12.0 °F - 9.0 °F 88% 30.47 in - Calm Calm - N/A   Unknown
4:56 AM 12.9 °F - 10.0 °F 88% 30.50 in - Calm Calm - N/A   Unknown
5:56 AM 15.1 °F - 12.0 °F 88% 30.50 in - Calm Calm - N/A   Unknown
6:56 AM 15.1 °F - 12.0 °F 88% 30.51 in - Calm Calm - N/A   Unknown
7:56 AM 15.1 °F - 12.0 °F 88% 30.53 in - Calm Calm - N/A   Unknown
8:56 AM 17.1 °F - 12.9 °F 84% 30.53 in - Calm Calm - N/A   Unknown
9:56 AM 17.1 °F 8.7 °F 12.9 °F 84% 30.54 in - Variable 5.8 mph - N/A   Unknown
10:56 AM 19.0 °F - 14.0 °F 81% 30.54 in - Calm Calm - N/A   Unknown
11:56 AM 19.0 °F 13.9 °F 15.1 °F 85% 30.53 in - Variable 3.5 mph - N/A   Unknown
12:56 PM 19.9 °F - 15.1 °F 81% 30.50 in - Calm Calm - N/A   Unknown
1:56 PM 19.9 °F 14.9 °F 15.1 °F 81% 30.51 in - Variable 3.5 mph - N/A   Unknown
2:56 PM 19.0 °F - 15.1 °F 85% 30.51 in - Calm Calm - N/A   Unknown
3:56 PM 19.9 °F - 16.0 °F 85% 30.54 in - Calm Calm - N/A   Unknown
4:56 PM 19.9 °F - 16.0 °F 85% 30.53 in - Calm Calm - N/A   Unknown
5:56 PM 19.9 °F - 16.0 °F 85% 30.51 in - Calm Calm - N/A   Unknown
6:56 PM 19.9 °F 10.1 °F 16.0 °F 85% 30.50 in - WSW 8.1 mph - N/A   Unknown
7:56 PM 19.0 °F 6.8 °F 16.0 °F 88% 30.51 in - West 11.5 mph 18.4 mph N/A   Unknown
8:56 PM 19.9 °F 14.9 °F 17.1 °F 89% 30.49 in - Variable 3.5 mph - N/A   Unknown
9:56 PM 19.9 °F - 17.1 °F 89% 30.50 in - Calm Calm - N/A   Unknown
10:56 PM 19.9 °F - 17.1 °F 89% 30.47 in - Calm Calm - N/A   Unknown
11:56 PM 19.9 °F - 17.1 °F 89% 30.47 in - Calm Calm - N/A   Unknown